sat.trackr.live / text

‹ back to catalog

QIANFAN-105

NORAD 66047 · 2025-233Q

PAYLOAD ACTIVE UNKNOWN

§ Identity

Operator
Country
PRC
Launch date
2025-10-17
Launch site
TAISC
Launch vehicle
Mass (kg)
RCS (m²)

External: N2YO · Heavens-Above · Gunter

§ Orbital elements

Epoch: 2026-05-25T03:52:27.892416Z

Period
106.59 min
Inclination
89.0043°
Eccentricity
0.0002002
Mean motion
13.51008967 rev/d
Perigee alt
1,067.1 km
Apogee alt
1,070.0 km
Semi-major
7,446.7 km
B*
1.9715e-4
RAAN
45.2623°
Arg perigee
70.4053°
Mean anomaly
289.7314°
Rev number
3,023

§ Raw data

QIANFAN-1051 66047U 25233Q   26145.16143394  .00000139  00000+0  19715-3 0  99952 66047  89.0043  45.2623 0002002  70.4053 289.7314 13.51008967 30236

JSON: /api/v1/satellites/66047 · /tle

For live sub-satellite position, see the globe view (requires WebGL).

§ Visibility from observer

Set your observer location to see the next 7 days of passes ≥ 10°. The values pass through the URL so the page stays shareable.

No JS? Fill the form by hand. The geolocation button needs JavaScript.